Dewpoint
-3 -1 -1 -4 -4 -4 -4 -3 -2 -4 -6 -5 -4 -4 -4 -5 -5 -5 -5 -4 -4 -4 -5 -6 -4 2 6 10 11 10 9 8 8 7 5 4 3 3 2 2 -4 -10 -12 -14
-3 -1 -3 -3 -4 -3 -2 -1 -2 -3 -4 -3 -2 -2 -3 -5 -5 -6 -6 -5 -5 -5 -5 -6 -6 2 7 10 11 10 9 8 8 6 5 4 3 3 2 2 -4 -9 -11 -13
-3 -4 -5 -4 -3 -2 -2 -0 -0 -1 -3 -3 -2 -2 -3 -6 -8 -7 -6 -6 -6 -3 -2 -4 -5 4 9 10 11 10 9 8 8 6 4 3 3 3 3 2 -1 -7 -9 -11
-6 -7 -6 -5 -3 -4 -1 -4 -4 -3 -2 0 -3 0 -4 -7 -6 -6 -7 -3 -1 -1 -1 -0 -1 4 9 10 10 10 9 8 8 6 4 3 3 3 3 3 2 -2 -6 -8
-6 -7 -7 -6 -5 -6 -3 -5 -4 -3 -2 -2 -2 -1 -3 -6 -6 -6 -4 -1 -1 -0 0 1 1 1 7 9 10 10 9 8 8 6 4 4 3 3 3 2 2 1 -1 -5
-6 -7 -7 -8 -9 -9 -8 -6 -6 -5 -3 1 -1 -2 -3 -5 -6 -7 -1 -1 0 0 1 1 1 3 5 8 9 10 9 8 7 6 5 4 4 3 3 2 2 1 0 -2
-6 -6 -6 -7 -5 -8 -8 -5 -2 -2 -0 1 -5 -4 -5 -2 -1 -1 -0 -1 -0 0 1 1 1 2 4 6 8 10 9 8 7 6 5 5 4 3 3 3 2 1 -0 -1
-2 -3 -8 -4 -3 -4 -5 -5 -2 -1 -2 -4 -7 -4 -6 -2 -1 -1 -1 -1 -1 -1 0 1 1 2 3 5 7 8 8 7 6 6 5 5 4 3 3 2 1 0 -1 -3
-1 -3 -3 -3 -3 -2 -2 -1 -5 -1 -3 -0 -4 -6 -1 -0 -0 -1 -2 -2 -2 -1 -0 0 1 2 2 3 5 6 7 7 6 6 5 5 4 3 2 1 0 -1 -2 -6
-4 1 -5 -6 -3 -4 -1 1 4 2 7 5 -2 -4 -5 -1 0 -1 -2 -3 -2 -2 -0 0 1 2 2 3 4 6 6 6 5 5 5 5 4 3 1 0 -1 -2 -4 -5
-6 -2 -0 -4 -3 -4 -4 2 6 5 5 9 6 1 2 3 2 1 -3 -4 -5 -2 -1 -0 1 2 2 3 3 4 4 4 4 4 4 4 3 2 0 -1 -1 -2 -3 -1
-9 -6 -3 -6 -10 -11 -8 -3 -0 6 5 4 5 3 3 2 2 -1 -1 -4 -5 -2 -1 -0 0 1 2 2 2 2 2 2 2 2 3 2 2 1 -0 -1 -2 -3 -3 -7
-3 -2 -1 -5 -9 -12 -11 -12 -10 -5 1 4 5 4 1 0 3 1 -3 -4 -4 -4 -1 -0 1 1 2 2 2 1 0 -0 0 1 1 1 1 0 -0 -2 -4 -4 -5 -3
-5 -4 -3 -1 -6 -9 -7 -9 -7 -2 5 5 5 3 -0 -2 -2 -3 -4 -4 -5 -6 -4 0 1 2 2 2 1 0 -0 -0 0 1 1 1 0 -0 -1 -0 -1 -1 -1 -1
-4 -1 -4 -5 -6 -7 -6 -10 -10 -3 2 3 -0 -3 -6 -9 -7 -4 -4 -8 -9 -9 -6 -3 0 3 2 2 2 1 -0 -0 0 0 0 0 -0 -0 -0 -1 -2 -2 -1 -2
-8 -1 -4 -4 -6 -6 -5 -5 -5 -7 -8 -10 -10 -9 -12 -12 -12 -3 -4 -9 -9 -9 -8 -5 -1 1 3 2 2 1 -0 -0 -0 0 0 -0 -0 -1 -1 -2 -2 -3 -3 -5
-6 -3 -3 -1 -6 -5 1 -3 -8 -5 -11 -10 -7 -9 -11 -11 -11 -8 -8 -10 -9 -7 -2 -2 -1 0 2 2 2 2 0 0 1 0 0 -1 -1 -2 -2 -2 -3 -4 -5 -5
-8 -8 -5 -0 -2 1 -6 -7 -8 -9 -10 -10 -11 -10 -10 -11 -10 -7 -6 -6 -6 -4 -4 -4 -3 -3 -1 2 2 2 1 0 0 1 0 -1 -1 -2 -3 -4 -5 -6 -7 -8
-9 -6 -3 -2 0 -3 -7 -10 -9 -10 -8 -12 -13 -10 -9 -11 -9 -7 -8 -6 -5 -5 -5 -5 -3 -2 -2 -2 3 2 2 1 1 0 -0 -2 -2 -3 -4 -6 -6 -8 -8 -8
-10 -9 -3 -5 -1 -1 -8 -13 -9 -7 -6 -9 -9 -11 -11 -11 -5 -6 -3 -5 -5 -5 -4 -3 -3 -2 -1 1 1 3 2 2 1 0 -1 -2 -3 -4 -5 -5 -5 -6 -7 -9
-7 -1 0 -2 -3 -7 -12 -13 -14 1 -6 -10 -11 -12 -11 -7 -8 -3 -4 -6 -5 -5 -4 -4 -3 -1 0 2 3 2 2 2 -0 -1 -2 -4 -5 -4 -4 -5 -6 -7 -10 -13
-5 -4 -3 -1 0 0 -7 -11 -9 -6 -8 -8 -9 -10 -8 -8 -4 -5 -6 -5 -5 -6 -6 -4 -2 -1 -1 -0 1 1 1 0 -1 -2 -3 -4 -4 -4 -5 -6 -6 -10 -13 -14
-5 -4 -0 -2 -2 -1 -4 -5 -4 -2 -5 -6 -4 -9 -8 -7 -6 -7 -7 -8 -8 -6 -7 -4 -2 -1 -1 -2 -1 -1 -1 -1 -2 -3 -4 -5 -5 -5 -6 -6 -7 -11 -13 -13
-10 -11 -7 -6 -7 -7 -2 -3 -6 -7 -3 -8 -8 -9 -8 -8 -8 -9 -12 -13 -13 -8 -5 -4 -2 -1 -1 -2 -3 -2 -2 -3 -4 -5 -5 -5 -6 -6 -6 -7 -8 -13 -13 -12
-10 -10 -8 -8 -10 -9 -7 -6 -7 -8 -7 -8 -7 -8 -10 -11 -11 -12 -12 -14 -13 -8 -6 -3 -1 -0 -1 -2 -3 -2 -4 -4 -5 -5 -6 -6 -6 -6 -7 -8 -11 -14 -14 -15
-11 -9 -6 -3 -10 -10 -9 -8 -6 -7 -7 -8 -9 -9 -8 -9 -10 -11 -11 -11 -10 -8 -6 -2 -0 -1 -1 -2 -3 -2 -4 -5 -6 -6 -6 -6 -6 -7 -9 -11 -12 -11 -12 -12
Wind_Speed
19 13 18 20 20 20 21 23 24 22 19 21 24 25 22 22 29 28 26 25 26 27 26 26 25 23 28 28 32 34 33 33 32 30 28 25 23 20 17 16 21 21 20 19
18 21 19 19 20 19 20 24 25 24 21 21 24 29 24 21 22 30 30 31 31 30 29 27 26 22 28 31 33 34 35 35 36 31 28 25 24 21 19 21 21 22 21 19
23 21 10 10 17 18 22 22 24 27 22 24 23 34 27 31 28 4 12 13 15 10 11 11 18 21 25 29 34 34 34 34 35 30 28 26 23 22 21 20 21 22 20 19
16 17 21 23 23 19 28 18 23 24 21 17 14 23 22 20 12 16 14 5 1 4 8 11 12 16 22 25 28 32 34 34 34 32 30 31 30 28 23 22 19 20 19 18
5 4 10 15 16 16 29 20 23 23 22 22 33 17 31 20 24 23 14 8 3 3 5 7 10 13 19 22 26 32 34 35 36 34 31 31 27 24 23 21 21 19 18 18
18 17 12 14 14 11 16 16 19 19 18 17 39 17 23 20 20 19 13 5 2 1 2 5 6 6 10 16 21 28 33 37 36 34 32 31 27 25 24 23 21 19 17 15
16 19 14 13 16 14 12 12 10 14 15 21 27 20 18 1 6 4 5 2 1 3 4 3 2 3 4 11 17 22 30 33 35 33 32 30 27 27 26 25 22 22 19 16
17 20 16 4 8 15 16 15 14 17 18 21 20 23 15 9 8 8 3 2 2 6 5 4 3 2 3 7 9 20 21 28 33 33 34 27 26 29 26 23 23 22 23 22
14 20 3 7 8 8 11 19 23 24 26 22 25 32 9 10 10 9 9 4 1 3 4 6 7 4 1 5 10 16 24 25 30 31 31 35 36 34 29 27 24 23 21 18
11 15 18 14 8 16 15 14 9 8 10 28 23 28 23 18 17 8 9 6 3 2 2 3 5 5 2 2 6 9 19 24 28 32 36 37 36 30 30 30 29 26 22 18
10 11 11 15 16 20 17 9 3 4 6 7 8 16 10 9 5 5 4 3 3 3 2 1 2 2 2 3 5 9 19 25 28 33 36 34 33 33 33 30 28 23 20 17
17 18 17 23 21 23 25 21 21 8 4 7 7 9 8 2 7 6 4 4 4 3 4 3 2 1 2 4 7 9 14 18 23 30 32 31 32 30 29 27 26 22 17 17
11 8 16 23 21 25 30 30 26 24 10 19 15 11 10 12 10 15 15 10 9 9 8 6 3 1 2 4 7 10 13 16 21 27 30 32 32 32 29 25 23 21 19 16
11 15 23 20 24 24 27 27 20 13 10 10 9 10 13 13 14 14 18 15 14 14 14 11 8 7 6 7 9 11 13 16 20 25 28 30 29 28 27 23 21 20 19 18
7 17 23 26 30 29 32 33 29 21 22 14 21 22 24 19 13 13 24 23 17 16 13 12 12 11 12 13 15 16 17 19 20 22 26 28 29 28 24 23 21 19 17 16
18 17 19 24 25 29 32 33 29 27 28 27 25 27 24 23 19 20 25 22 15 13 13 9 12 12 14 16 17 18 21 24 27 29 27 28 26 22 23 22 23 21 18 15
20 17 19 23 23 25 17 30 29 24 25 26 24 25 22 20 18 12 17 13 11 9 3 5 5 9 14 16 19 22 22 27 27 24 21 25 24 25 24 22 21 19 16 15
22 23 18 19 20 24 24 17 28 28 25 24 24 22 20 19 12 16 8 8 9 3 1 4 4 5 8 15 19 26 25 26 28 27 22 27 27 26 25 23 22 20 18 17
22 21 18 18 18 22 29 22 20 16 20 19 19 14 17 17 9 12 11 5 1 3 6 6 6 7 10 11 18 25 29 25 28 31 29 32 32 30 29 26 24 23 23 19
17 18 14 18 22 23 22 24 13 30 18 18 19 18 16 12 7 2 7 5 2 1 4 6 8 8 8 10 14 27 29 26 31 35 34 35 34 33 29 28 27 23 19 17
9 6 16 18 18 19 24 26 23 13 10 6 11 13 12 8 4 14 7 2 2 2 3 6 8 8 7 5 10 26 28 26 29 33 34 36 36 29 27 27 26 22 20 19
13 11 11 10 13 20 18 23 22 10 11 3 14 8 8 10 7 3 2 0 2 4 4 5 5 6 4 2 11 20 25 27 27 29 34 37 31 31 29 26 24 20 20 20
5 2 6 8 7 7 17 19 14 19 25 9 11 8 4 11 10 11 7 4 4 5 5 3 3 4 3 4 9 16 22 24 24 29 34 33 33 30 28 27 24 23 21 22
12 12 10 14 12 16 12 21 16 15 20 15 15 11 10 11 10 9 7 5 6 5 5 4 4 6 6 7 8 10 14 19 22 29 33 35 32 30 27 24 24 24 25 25
14 14 15 18 19 18 12 21 12 15 17 16 12 11 12 13 11 9 7 7 7 6 6 5 5 8 10 10 10 7 11 16 24 28 32 31 29 27 25 22 24 23 25 23
15 15 9 11 18 18 16 13 8 14 17 13 15 14 13 12 13 11 9 7 8 8 8 7 7 11 12 12 13 8 12 19 24 28 29 29 28 25 21 20 20 17 22 23
Wind_Direction
211 229 227 233 238 247 269 278 274 274 281 279 273 270 268 268 266 265 264 258 253 251 250 246 243 232 220 211 204 199 197 199 191 191 187 189 183 181 179 186 205 197 199 199
252 242 254 272 270 264 265 268 265 271 269 268 276 273 267 263 269 264 264 262 262 255 250 244 234 220 216 211 206 202 200 197 194 194 191 189 184 182 182 197 197 198 200 201
254 265 230 281 270 264 257 258 274 279 287 282 287 276 269 258 267 280 253 259 270 319 317 262 234 212 212 211 207 207 204 201 196 194 187 185 183 179 181 188 190 194 195 193
267 279 273 269 255 252 268 263 271 274 272 269 269 279 273 288 230 208 212 151 239 327 325 314 289 223 214 215 213 210 207 204 200 195 193 189 187 185 186 183 181 187 189 189
239 261 287 276 271 275 271 283 278 274 275 287 266 248 277 263 258 260 170 156 162 4 340 312 293 270 221 219 214 215 211 206 203 199 197 192 190 189 184 177 175 175 178 186
262 270 271 266 282 277 289 281 273 273 257 256 257 251 262 264 263 227 121 164 166 164 359 333 310 271 228 218 218 218 209 204 205 202 197 195 191 187 181 178 169 165 164 168
256 236 234 228 270 253 249 257 261 247 234 242 263 263 241 126 78 32 118 170 280 40 42 12 347 318 226 215 213 210 208 203 203 203 199 198 191 190 180 175 172 167 160 159
276 268 266 82 258 280 274 241 245 270 264 269 254 243 265 110 130 135 139 145 92 42 16 21 17 81 235 220 209 212 202 205 202 204 199 199 190 186 178 167 172 162 167 173
296 277 22 298 315 296 278 245 264 270 263 269 265 275 151 172 171 173 166 198 90 69 26 14 20 11 278 227 216 217 209 202 199 205 195 194 192 182 185 177 179 185 187 182
280 288 278 278 261 264 254 336 284 243 260 258 251 254 260 213 186 187 213 200 174 113 65 10 8 4 338 227 205 203 208 208 201 196 199 195 191 194 191 187 182 183 176 180
291 268 271 283 274 273 265 232 308 302 286 295 271 257 10 74 74 302 275 177 270 244 242 346 21 19 80 117 150 175 177 183 191 197 196 195 193 189 186 181 181 176 173 186
293 296 282 278 283 290 293 269 267 269 270 271 296 282 342 119 160 251 258 294 320 297 292 306 333 30 78 136 151 173 194 202 204 195 198 195 189 183 183 182 179 173 177 177
341 281 279 273 266 255 251 257 255 262 257 255 259 258 351 3 331 307 279 269 282 270 258 255 249 227 182 159 161 170 186 195 196 196 191 185 183 183 180 175 163 167 176 178
293 276 267 267 274 285 284 287 298 262 248 251 248 306 300 282 279 257 279 273 269 256 247 243 241 229 207 190 183 176 177 178 186 189 187 183 183 183 179 183 185 187 182 187
273 272 273 270 273 275 281 269 267 249 260 258 274 270 271 274 254 267 282 280 279 275 252 239 233 218 207 191 190 186 183 181 184 183 186 187 187 187 189 186 177 177 184 188
269 273 281 284 281 274 271 259 262 273 272 273 272 278 281 278 264 211 240 257 262 267 272 258 229 224 215 207 196 192 181 183 189 192 195 193 188 192 184 181 179 181 181 177
263 268 277 273 285 281 290 259 253 253 261 267 275 283 284 278 276 246 261 268 254 258 192 282 259 231 221 217 207 199 203 205 204 203 221 215 201 186 185 184 178 172 168 177
262 263 261 265 275 270 273 293 246 249 257 258 262 273 276 274 270 266 217 260 253 232 340 280 286 279 259 221 212 207 208 214 207 214 218 199 191 188 183 176 168 163 167 163
237 242 250 255 256 280 289 279 261 261 274 264 275 276 272 265 244 254 235 175 141 291 298 319 316 296 276 260 220 203 224 224 218 215 209 196 190 185 179 173 172 172 170 171
235 249 236 240 255 259 267 286 337 314 250 267 248 258 252 254 229 259 57 141 163 354 327 324 327 320 307 282 231 216 228 230 227 218 208 198 192 188 178 179 185 181 171 161
288 251 233 230 244 256 263 274 283 278 256 300 294 246 247 225 208 138 164 151 78 27 359 351 342 335 329 323 193 210 225 225 227 220 205 194 191 186 184 185 182 167 161 162
302 287 244 231 240 258 317 271 265 239 346 300 284 225 213 209 147 190 186 98 321 316 337 337 353 329 316 263 223 222 221 224 223 216 205 195 188 187 187 185 178 164 166 166
293 348 305 289 290 217 250 282 300 301 311 283 289 280 208 221 214 220 228 248 289 297 312 317 331 273 260 228 231 225 224 221 216 205 197 190 188 186 185 181 176 166 169 172
304 319 296 302 295 315 354 295 276 264 295 253 253 271 224 231 223 230 235 256 271 278 278 275 248 236 221 203 222 225 222 215 204 193 188 186 184 181 182 182 176 174 175 179
289 295 288 284 287 310 280 267 309 292 273 283 251 241 240 237 240 248 262 267 274 274 273 260 239 226 213 223 215 226 208 201 188 186 185 183 182 183 181 177 178 185 192 192
273 271 275 276 298 306 298 323 317 323 310 282 277 249 245 241 249 255 262 269 277 280 281 259 227 252 233 222 228 219 200 186 183 182 182 182 181 180 172 167 167 180 189 186
Height
1455 1456 1445 1438 1437 1437 1438 1437 1433 1427 1425 1428 1426 1421 1421 1422 1422 1420 1420 1422 1422 1422 1423 1426 1429 1432 1436 1440 1444 1446 1452 1456 1460 1462 1466 1469 1473 1477 1481 1483 1483 1486 1489 1492
1455 1444 1441 1438 1434 1433 1434 1436 1431 1423 1422 1425 1423 1414 1416 1412 1410 1410 1412 1413 1414 1413 1414 1415 1418 1424 1430 1434 1438 1441 1444 1447 1451 1456 1461 1465 1468 1472 1476 1477 1480 1482 1486 1488
1447 1438 1435 1440 1436 1440 1433 1435 1435 1431 1424 1418 1422 1404 1410 1401 1390 1396 1404 1407 1411 1412 1410 1409 1412 1417 1424 1428 1431 1436 1441 1443 1446 1452 1456 1461 1465 1468 1470 1473 1476 1479 1482 1485
1441 1440 1438 1435 1433 1438 1430 1432 1427 1428 1429 1425 1416 1397 1393 1391 1390 1396 1394 1404 1412 1415 1417 1416 1413 1414 1420 1425 1429 1432 1436 1440 1443 1448 1451 1453 1456 1460 1465 1468 1472 1474 1478 1481
1437 1437 1443 1444 1436 1434 1421 1428 1427 1424 1428 1431 1405 1418 1367 1389 1384 1383 1391 1405 1409 1413 1415 1417 1416 1413 1416 1421 1424 1427 1433 1437 1439 1443 1447 1450 1456 1460 1463 1466 1467 1470 1474 1477
1442 1439 1442 1445 1436 1435 1435 1434 1432 1431 1425 1438 1385 1411 1399 1380 1373 1375 1393 1407 1409 1409 1410 1413 1415 1413 1413 1417 1421 1422 1426 1430 1436 1441 1444 1447 1452 1457 1461 1463 1464 1466 1470 1474
1427 1429 1434 1439 1438 1432 1435 1435 1436 1424 1420 1408 1390 1395 1379 1374 1386 1393 1399 1407 1413 1410 1406 1408 1409 1414 1413 1414 1417 1420 1423 1426 1431 1437 1441 1445 1449 1452 1455 1458 1462 1462 1465 1468
1442 1434 1425 1433 1438 1432 1424 1428 1431 1425 1411 1393 1376 1383 1377 1379 1388 1396 1405 1407 1406 1406 1412 1409 1409 1406 1412 1414 1414 1416 1420 1424 1429 1431 1436 1441 1446 1448 1450 1455 1460 1461 1462 1463
1449 1438 1436 1442 1439 1437 1429 1426 1418 1415 1409 1410 1398 1380 1384 1390 1395 1394 1393 1402 1404 1404 1410 1413 1407 1407 1409 1412 1414 1413 1416 1420 1425 1429 1432 1434 1437 1439 1446 1449 1454 1458 1458 1461
1454 1456 1446 1441 1444 1441 1439 1440 1438 1423 1427 1412 1392 1382 1368 1373 1384 1393 1394 1395 1400 1402 1406 1410 1411 1410 1410 1411 1413 1413 1412 1417 1421 1423 1427 1429 1431 1437 1442 1445 1449 1453 1456 1458
1455 1458 1453 1449 1448 1441 1435 1437 1452 1452 1441 1419 1405 1391 1393 1392 1400 1401 1400 1398 1400 1403 1405 1407 1408 1411 1409 1410 1410 1411 1412 1412 1415 1421 1424 1428 1430 1434 1438 1442 1447 1452 1453 1456
1458 1456 1450 1441 1438 1436 1437 1437 1436 1440 1434 1435 1437 1422 1411 1407 1406 1408 1407 1401 1401 1404 1406 1407 1408 1410 1408 1410 1410 1411 1412 1414 1417 1420 1421 1426 1430 1435 1438 1441 1444 1450 1454 1457
1464 1458 1447 1437 1433 1426 1425 1422 1420 1419 1422 1435 1429 1415 1417 1416 1418 1416 1409 1402 1400 1402 1404 1407 1408 1407 1408 1409 1409 1409 1412 1416 1418 1418 1419 1423 1428 1431 1436 1441 1444 1449 1452 1456
1466 1458 1457 1445 1432 1428 1421 1417 1416 1416 1424 1418 1415 1416 1414 1415 1414 1409 1402 1399 1397 1398 1401 1403 1405 1405 1407 1408 1409 1410 1413 1415 1418 1419 1421 1422 1426 1431 1434 1439 1442 1447 1450 1453
1460 1455 1447 1437 1432 1426 1420 1411 1405 1416 1419 1421 1411 1408 1401 1397 1396 1402 1402 1394 1394 1394 1397 1397 1402 1405 1407 1407 1410 1411 1411 1415 1416 1419 1421 1423 1425 1428 1432 1437 1440 1444 1447 1451
1450 1451 1446 1437 1429 1422 1413 1405 1405 1398 1394 1388 1390 1389 1388 1387 1386 1394 1391 1388 1390 1391 1392 1394 1397 1402 1406 1406 1407 1410 1409 1411 1415 1415 1419 1421 1425 1428 1432 1435 1439 1442 1445 1449
1449 1450 1447 1437 1424 1413 1417 1398 1389 1391 1388 1386 1382 1378 1377 1377 1378 1381 1384 1385 1385 1388 1393 1397 1395 1397 1399 1404 1405 1408 1408 1409 1411 1412 1416 1421 1423 1425 1429 1433 1437 1440 1444 1449
1439 1439 1439 1435 1428 1418 1388 1387 1380 1378 1376 1375 1372 1372 1372 1371 1372 1381 1380 1383 1385 1390 1393 1396 1395 1396 1396 1396 1400 1402 1403 1405 1407 1409 1411 1415 1418 1423 1428 1432 1436 1441 1445 1450
1423 1424 1426 1434 1418 1402 1390 1381 1376 1369 1371 1364 1364 1365 1367 1367 1370 1374 1376 1381 1387 1391 1393 1393 1393 1393 1393 1394 1394 1394 1395 1399 1401 1405 1407 1410 1413 1418 1425 1429 1434 1438 1442 1447
1407 1406 1412 1416 1413 1403 1381 1373 1373 1370 1360 1363 1362 1361 1362 1365 1369 1373 1381 1382 1386 1388 1390 1391 1392 1391 1390 1389 1389 1386 1387 1392 1396 1399 1402 1405 1411 1415 1422 1427 1431 1435 1441 1447
1399 1409 1406 1401 1400 1385 1378 1374 1373 1388 1360 1354 1354 1355 1360 1363 1368 1378 1382 1384 1386 1387 1388 1387 1388 1388 1387 1386 1386 1383 1384 1387 1392 1397 1401 1405 1408 1414 1421 1424 1430 1434 1441 1446
1398 1391 1389 1396 1400 1388 1377 1368 1368 1371 1361 1360 1360 1359 1363 1367 1373 1378 1380 1382 1384 1385 1385 1386 1386 1387 1386 1385 1386 1385 1386 1386 1389 1395 1399 1404 1410 1415 1418 1425 1430 1434 1440 1443
1397 1402 1401 1393 1378 1379 1378 1379 1372 1373 1367 1365 1367 1356 1363 1368 1372 1376 1378 1379 1381 1383 1383 1383 1385 1387 1387 1384 1383 1383 1385 1387 1389 1394 1399 1406 1409 1414 1418 1422 1426 1433 1438 1441
1388 1390 1391 1387 1375 1371 1379 1376 1371 1371 1372 1366 1365 1364 1366 1369 1371 1374 1376 1377 1378 1380 1381 1382 1383 1385 1385 1384 1382 1382 1384 1387 1389 1393 1400 1404 1409 1412 1417 1421 1426 1431 1435 1437
1391 1389 1386 1381 1375 1370 1369 1369 1367 1366 1364 1362 1363 1364 1366 1369 1370 1372 1373 1375 1376 1377 1379 1380 1380 1382 1382 1381 1380 1381 1383 1388 1392 1395 1399 1403 1407 1411 1416 1420 1425 1428 1432 1435
1387 1382 1381 1376 1373 1371 1370 1370 1372 1370 1367 1365 1365 1365 1366 1368 1369 1370 1371 1372 1374 1375 1376 1377 1376 1377 1378 1379 1380 1379 1384 1388 1391 1393 1398 1402 1406 1410 1415 1421 1426 1429 1431 1433